User: anonymous   Login
Location: Seasalter
(51.3333°N, 1.0167°E)
Time: 20:22:39
(UTC+00:00)
Language:

ATLAS 2AS CENTAUR R/B - Orbit

View from above orbital plane
View from above orbital plane
View from above satellite
View from above satellite

Ground track
Ground track

The orbit data is extracted from the following two-line orbital elements,

1 28096U 03054B   24058.80716301 0.00000020  00000-0  34359-4 0    05
2 28096  63.6781 356.7556 0131147 175.6293 184.3707 13.40955986    05
Epoch (UTC): 27 February 2024 19:22:18
Eccentricity: 0.0131147
inclination: 63.6781°
perigee height: 1007 km
apogee height: 1204 km
right ascension of ascending node: 356.7556°
argument of perigee: 175.6293°
revolutions per day: 13.40955986
mean anomaly at epoch: 184.3707°
orbit number at epoch: 0

The dashed part of the orbit path shows where the satellite is in the earth's shadow,  

DLR